Regional Weather Roundup
Issued by NWS Wakefield, VA

Home | Current Version | Previous Version | Text Only | Print | Product List | Glossary On
Versions: 1 2 3 4 5 6 7 8 9 10 11 12 13 14 15 16 17 18 19 20 21 22 23 24 25 26 27 28 29 30 31 32 33 34 35 36 37 38 39 40 41 42 43 44 45 46 47 48 49 50
000
ASUS41 KAKQ 190015
RWRAKQ

REGIONAL WEATHER ROUNDUP
NATIONAL WEATHER SERVICE WAKEFIELD VA
800 PM EDT WED OCT 18 2017

Note: "fair" indicates few or no clouds below 12,000 feet with no
significant weather and/or obstructions to visibility. * = Denotes
station may not report precipitation (e.g., rain,snow,etc.),
thunder or fog.

VAZ042-051-052>054-056-190100-
NORTHERN VIRGINIA

CITY           SKY/WX    TMP DP  RH WIND       PRES   REMARKS
WASH NATIONAL  PTCLDY    61  48  62 S7        30.31R
DULLES         CLEAR     59  44  57 S6        30.30R
FORT BELVOIR   CLEAR     51  48  88 CALM      30.31R
QUANTICO       CLEAR     56  52  86 NW5       30.32R
FREDERICKSBRG* CLEAR     54  48  80 CALM      30.31R
STAFFORD*      CLEAR     49  49 100 CALM      30.35S
WARRENTON      CLEAR     58  39  49 S3        30.30S
CULPEPER*      CLEAR     52  42  70 CALM      30.32R
MANASSAS*      CLEAR     51  46  83 CALM      30.31R
LEESBURG*      CLEAR     55  46  71 S3        30.31R
WINCHESTER     CLEAR     52  41  66 S3        30.28S
FRONT ROYAL*   CLEAR     59  41  51 CALM      30.28S
LURAY*         CLEAR     59  41  51 S6        30.30R
$$

VAZ048-049-060>072-079>083-190100-
CENTRAL AND SOUTH CENTRAL VIRGINIA

CITY           SKY/WX    TMP DP  RH WIND       PRES   REMARKS
RICHMOND       PTCLDY    54  43  66 CALM      30.33R
CHESTERFIELD*  NOT AVBL
PETERSBURG*    CLEAR    N/A N/A N/A CALM      30.34R
HANOVER        CLEAR     51  46  83 CALM      30.33S
TAPPAHANNOCK*  CLEAR     51  45  80 CALM      30.33S
QUINTON*       FAIR      52  49  90 CALM      30.32S
CHARLOTTSVILLE CLEAR     60  41  49 S5        30.31S
GORDONSVILLE*  CLEAR     51  46  83 CALM      30.31S
ORANGE*        CLEAR     50  43  76 CALM      30.31S
LOUISA*        CLEAR     46  43  87 S3        30.32R
BUMPASS*       FAIR      50  48  92 CALM      30.32R
FARMVILLE*     CLEAR     53  41  63 CALM      30.31S
CREWE*         FAIR      48  48 100 CALM      30.33R
FORT PICKETT*  FAIR      51  44  77 CALM      30.33R
CHASE CITY*    FAIR      51  41  69 CALM      30.33R
CLARKSVILLE*   FAIR      50  43  76 CALM      30.32S
SOUTH HILL*    CLEAR     50  46  84 CALM      30.39R
LAWRENCEVILLE* FAIR      52  45  75 CALM      30.33R
EMPORIA*       CLEAR     50  45  81 CALM      30.35R
$$

VAZ088>098-190100-
SOUTHEAST VIRGINIA

CITY           SKY/WX    TMP DP  RH WIND       PRES   REMARKS
NORFOLK        CLEAR     58  49  72 E3        30.33R
VIRGINIA BEACH CLEAR     54  48  80 CALM      30.32S
NORFOLK NAVAL  PTCLDY    56  47  71 SE3       30.35R
WEST POINT*    CLEAR     49  48  95 CALM      30.34S
SALUDA*        FAIR      51  47  88 CALM      30.33R
NEWPORT NEWS   CLEAR     50  47  89 CALM      30.34R
LANGLEY AFB    CLEAR     53  49  85 CALM      30.33R
FORT EUSTIS    CLEAR     55  47  74 CALM      30.31R
WILLIAMSBURG*  CLEAR     54  52  94 CALM      30.34R
HR EXEC AP*    NOT AVBL
FRANKLIN*      CLEAR     53  49  86 CALM      30.34R
US460-WAKEFLD  CLEAR     52  50  93 CALM      30.33R
$$

VAZ020-022-025-037-045-190100-
WEST CENTRAL AND SOUTHWEST VIRGINIA

CITY           SKY/WX    TMP DP  RH WIND       PRES   REMARKS
STAUNTON*      CLEAR     53  40  61 CALM      30.33S
WAYNESBORO*    CLEAR     53  42  66 SW3       30.32S
HOT SPRINGS VA CLEAR     50  33  51 CALM      30.35F
LYNCHBURG      CLEAR     50  41  71 CALM      30.33S
DANVILLE       CLEAR     49  44  83 E3        30.33R
SOUTH BOSTON*  FAIR      51  40  64 CALM      30.33R
MARTINSVILLE   CLEAR     46  43  88 CALM      30.36R
ROANOKE        CLEAR     56  41  57 CALM      30.34S
BLACKSBURG     CLEAR     53  42  66 CALM      30.37R
DUBLIN*        CLOUDY    58  41  53 CALM      30.34S
MARION*        CLOUDY    56  40  56 NE5       30.35S
HILLSVILLE*    CLEAR     51  35  54 CALM      30.33S
RICHLANDS*     FAIR      61  20  20 SE3       30.31R
WISE*          PTCLDY    55  41  58 CALM      30.31S
ABINGDON*      CLOUDY    57  46  67 CALM      30.30R
$$

MDZ021>025-VAZ099-100-190100-
SOUTHERN MARYLAND AND THE DELMARVA PENINSULA

CITY           SKY/WX    TMP DP  RH WIND       PRES   REMARKS
PATUXENT RIVER PTCLDY    57  45  64 S6        30.31S
BAY BRIDGE APT CLEAR     61  46  59 S5        30.30S
LEONARDTOWN    NOT AVBL
DOVER          CLEAR     59  46  62 SW5       30.30R
GEORGETOWN     CLEAR     52  47  83 S3        30.33R
EASTON         CLEAR     57  45  62 S7        30.35S
CAMBRIDGE      CLEAR     54  46  76 CALM      30.32S
SALISBURY      CLEAR     52  49  89 E3        30.32S
OCEAN CITY     CLEAR     51  44  77 CALM      30.34R
WALLOPS ISLAND CLEAR     52  47  83 CALM      30.33S
ACCOMACK*      CLEAR     50  48  94 CALM      30.33S
$$

NCZ012>017-030>032-190100-
NORTH CENTRAL AND EASTERN NORTH CAROLINA

CITY           SKY/WX    TMP DP  RH WIND       PRES   REMARKS
ROANOKE RAPIDS FAIR      52  52 100 CALM      30.32S
RALEIGH        PTCLDY    54  46  74 CALM      30.33R
ELIZABETH CITY CLEAR     59  54  83 E6        30.33R
AHOSKIE*       CLEAR     53  51  94 CALM      30.33R
EDENTON*       CLEAR     60  55  84 CALM      30.33S
CURRITUCK*     CLEAR     57  54  91 CALM      30.34R
KILL DEVIL HLS CLEAR     63  53  70 CALM      30.31R
MANTEO         CLEAR    N/A N/A N/A E7        30.32S
CAPE HATTERAS  CLEAR     66  60  81 NE7       30.29S
TARBORO*       NOT AVBL
GOLDSBORO      CLEAR     57  50  78 CALM      30.30R
WASHINGTON     CLEAR     60  55  81 NE6       30.32R
GREENVILLE     CLEAR     57  55  94 CALM      30.32S
NEW BERN       CLEAR     62  57  83 E3        30.31R
WILMINGTON     CLEAR     62  55  77 NE3       30.29R
$$

VAZ048-190100-
ELSEWHERE

CITY           SKY/WX    TMP DP  RH WIND       PRES   REMARKS
HARRISBURG PA  PTCLDY    62  48  60 SW10      30.27R
BALTIMORE      PTCLDY    53  47  79 S3        30.30R
ANNAPOLIS      CLEAR     62  47  57 SW3       30.30S
ANDREWS AFB    CLEAR     56  46  68 S5        30.30R
PHILADELPHIA   CLEAR     64  46  52 SW8       30.30R
HENDERSON NC   CLEAR     49  41  72 CALM      30.33R
GREENSBORO     MOCLDY    57  42  57 CALM      30.32R
ROCKY MOUNT    CLEAR     53  52  96 CALM      30.32S
$$

VAZ100-190100-
MARINE

STATION/POSITION TIME  TEMP    WIND        PRES    WAVE   SWELL
                       AIR SEA DIR/SP/G            HT/PER HT/PER
                 (UTC) (F)     (DEG/KT/KT) (MB)    (FT/S) (FT/S)
BRANDYWINE LGT   2348          250/ 17/ 19   N/A
CAPE MAY NJ      2342   63 65  180/  6/  8 1026.0R
LEWES DE         2348          210/  4/  5   N/A
15NM E FENWICK I 2350   64 67  200/ 10/ 12 1027.3R   3/ 9   3/ 9
OCEAN-CITY-INLET 2348   60 67  250/  4/  5 1027.4R
WACHAPREAGUE VA  2348   51 65  320/  1/  2 1027.2R
THOMAS POINT MD  0000   65 68  200/ 12/ 13   N/A
GOOSES REEF MD   0000   65 69  190/ 10/ 12 1023.5    1/ 2
COVE POINT MD    2348   61     210/  8/  9 1027.1S
SOLOMONS ISLAND  2348          190/  6/  7   N/A
BISHOPS HEAD MD  2348   63 64  170/  8/  9 1026.9S
PINEY POINT MD   2336          200/  7/  8   N/A
POTOMAC MD       0000   64 69  190/ 10/ 12 1026.1    1/ 2
CAMBRIDGE MD     2348   57 67              1027.4R
LEWISETTA VA     2348   60 65  210/  6/  7 1026.6R
RAPPAHANNOCK LGT 2336          140/  4/  5 1027.5F
STINGRAY PT      0000   63 69  210/  6/  8 1027.3    0
YORK RVR RNG VA  2336   63     140/  6/  7 1027.4S
YORKTOWN VA      2336   59 70  190/  2/  3 1026.6S
JAMESTOWN VA     0000      69   80/  4/  4   N/A     0
DOMINION TERM VA 2336   64     100/  7/ 10 1027.0R
KIPTOPEKE VA     2336      68   90/  4/  4   N/A
CAPE HENRY VA    2336   62     120/  5/  6   N/A
WILLOUBY STN VA  2336   63     130/  7/  8 1026.9R
S CRANEY ISL VA  2336   62     100/  6/  8 1026.6R
CAPE HENRY BUOY  0000      70                N/A     3/10   2/11
1ST LANDING BUOY 0000   63 69              1027.0    2/ 4
CAPE CHARLES BUO 2321      70                N/A     3/ 9
64NM E OF VA BCH 2350   65 67   90/ 10/ 12 1027.2R   4/ 9   3/ 9
DUCK PIER NC     2336   65 69   60/ 10/ 12 1026.5R
44100 DUCK FRF   2335      70                N/A     4/ 9   2/11
44056 DUCK FRF   0000      70                N/A     4/ 8   2/11
OREGON INLET NC  2336   65 65   40/  9/ 13 1026.3R
HATTERAS NC      2336   66 68   40/  9/ 13 1025.5S
DIAMOND SHLS NC  2350   72 82   30/ 17/ 21 1024.4R   7/ 7   3/ 9
CAPE LOOKOUT NC  0000   65      20/ 14/ 16 1025.2R
$$



USA.gov is the U.S. government's official web portal to all federal, state and local government web resources and services.